When you browse on this site, cookies collect data to enhance your experience and personalize the content and advertising you see.
Visit our Privacy Policy to learn more. By continuing to use the site, you agree to this use of cookies and data.
  • In Hungary
  • List of Countries
  • For 7 days
  • Water Temperature
  • Weather Map
  • News
  • Weather Widgets
  • user-avatar
    Login

    Hourly Weather Rokity

    Today, 12 December, Thursday

    Time Temperature Precipitation Wind Pressure Humidity
    00:00 -2°C° 0 mm 4 mps 750 mmHg 73%
    01:00 -2°C° 0 mm 4 mps 749 mmHg 72%
    02:00 -1°C° 0 mm 3 mps 749 mmHg 73%
    03:00 -1°C° 0 mm 3 mps 748 mmHg 73%
    04:00 -1°C° 0 mm 3 mps 748 mmHg 74%
    05:00 -1°C° 0 mm 3 mps 748 mmHg 79%
    06:00 0°C° 0 mm 3 mps 747 mmHg 85%
    07:00 0°C° 0 mm 3 mps 747 mmHg 90%
    08:00 0°C° 0.1 mm 3 mps 747 mmHg 91%
    09:00 0°C° 0.1 mm 4 mps 747 mmHg 92%
    10:00 0°C° 0.1 mm 4 mps 747 mmHg 92%
    11:00 +1°C° 0.1 mm 4 mps 747 mmHg 92%
    12:00 +1°C° 0.1 mm 4 mps 747 mmHg 91%
    13:00 +3°C° 0.1 mm 3 mps 747 mmHg 91%
    14:00 +3°C° 0 mm 3 mps 747 mmHg 91%
    15:00 +3°C° 0 mm 3 mps 747 mmHg 91%
    16:00 +2°C° 0 mm 3 mps 747 mmHg 91%
    17:00 +2°C° 0 mm 3 mps 747 mmHg 91%
    18:00 +1°C° 0 mm 4 mps 747 mmHg 91%
    19:00 +1°C° 0 mm 4 mps 747 mmHg 91%
    20:00 +1°C° 0 mm 4 mps 746 mmHg 90%
    21:00 0°C° 0 mm 4 mps 746 mmHg 89%
    22:00 0°C° 0 mm 4 mps 745 mmHg 88%
    23:00 0°C° 0 mm 4 mps 744 mmHg 88%

    Tomorrow, 13 December, Friday

    Time Temperature Precipitation Wind Pressure Humidity
    00:00 0°C° 0 mm 4 mps 744 mmHg 88%
    01:00 0°C° 0 mm 4 mps 743 mmHg 87%
    02:00 -1°C° 0 mm 5 mps 742 mmHg 87%
    03:00 -1°C° 0 mm 5 mps 741 mmHg 87%
    04:00 -1°C° 0 mm 5 mps 741 mmHg 86%
    05:00 -1°C° 0 mm 5 mps 740 mmHg 86%
    06:00 -2°C° 0 mm 5 mps 739 mmHg 85%
    07:00 -2°C° 0 mm 5 mps 738 mmHg 85%
    08:00 -2°C° 0 mm 6 mps 738 mmHg 85%
    09:00 -2°C° 0 mm 6 mps 737 mmHg 85%
    10:00 -1°C° 0 mm 6 mps 736 mmHg 85%
    11:00 +1°C° 0 mm 6 mps 736 mmHg 81%
    12:00 +1°C° 0 mm 6 mps 736 mmHg 77%
    13:00 +2°C° 0 mm 6 mps 735 mmHg 73%
    14:00 +2°C° 0 mm 5 mps 735 mmHg 76%
    15:00 +2°C° 0 mm 5 mps 735 mmHg 78%
    16:00 +3°C° 0 mm 4 mps 735 mmHg 81%
    17:00 +1°C° 0 mm 4 mps 735 mmHg 83%
    18:00 +1°C° 0 mm 4 mps 735 mmHg 85%
    19:00 +1°C° 0 mm 4 mps 735 mmHg 86%
    20:00 0°C° 0 mm 4 mps 735 mmHg 89%
    21:00 0°C° 0 mm 4 mps 736 mmHg 91%
    22:00 -1°C° 0 mm 4 mps 736 mmHg 93%
    23:00 0°C° 0 mm 4 mps 736 mmHg 91%

    Day after tomorrow, 14 December, Saturday

    Time Temperature Precipitation Wind Pressure Humidity
    00:00 +1°C° 0 mm 4 mps 736 mmHg 89%
    01:00 +1°C° 0 mm 4 mps 736 mmHg 87%
    02:00 +1°C° 0 mm 4 mps 736 mmHg 89%
    03:00 +1°C° 0 mm 4 mps 736 mmHg 91%
    04:00 +1°C° 0 mm 4 mps 737 mmHg 93%
    05:00 +1°C° 0.1 mm 4 mps 737 mmHg 93%
    06:00 +1°C° 0.1 mm 4 mps 737 mmHg 93%
    07:00 +1°C° 0.1 mm 4 mps 738 mmHg 94%
    08:00 +2°C° 0.2 mm 5 mps 738 mmHg 92%
    09:00 +2°C° 0.2 mm 5 mps 738 mmHg 90%
    10:00 +3°C° 0.2 mm 6 mps 739 mmHg 88%
    11:00 +3°C° 0 mm 6 mps 739 mmHg 83%
    12:00 +3°C° 0 mm 6 mps 739 mmHg 79%
    13:00 +3°C° 0 mm 7 mps 739 mmHg 74%
    14:00 +3°C° 0.2 mm 7 mps 739 mmHg 80%
    15:00 +3°C° 0.2 mm 7 mps 739 mmHg 85%
    16:00 +2°C° 0.2 mm 7 mps 738 mmHg 90%
    17:00 +2°C° 0.5 mm 8 mps 739 mmHg 85%
    18:00 +2°C° 0.5 mm 8 mps 740 mmHg 80%
    19:00 +3°C° 0.5 mm 9 mps 740 mmHg 75%
    20:00 +2°C° 0 mm 8 mps 742 mmHg 74%
    21:00 +2°C° 0 mm 7 mps 743 mmHg 73%
    22:00 +2°C° 0 mm 6 mps 744 mmHg 72%
    23:00 +1°C° 0 mm 6 mps 744 mmHg 74%

    15 December, Sunday

    Time Temperature Precipitation Wind Pressure Humidity
    00:00 +1°C° 0 mm 6 mps 745 mmHg 75%
    01:00 +1°C° 0 mm 6 mps 745 mmHg 77%
    02:00 +1°C° 0 mm 5 mps 746 mmHg 81%
    03:00 +1°C° 0 mm 5 mps 746 mmHg 86%
    04:00 +1°C° 0 mm 4 mps 746 mmHg 90%
    05:00 +1°C° 0 mm 4 mps 746 mmHg 91%
    06:00 +1°C° 0 mm 4 mps 745 mmHg 91%
    07:00 +1°C° 0 mm 4 mps 745 mmHg 91%
    08:00 +2°C° 0 mm 5 mps 745 mmHg 90%
    09:00 +3°C° 0 mm 6 mps 744 mmHg 89%
    10:00 +4°C° 0 mm 7 mps 744 mmHg 88%
    11:00 +5°C° 0.2 mm 8 mps 744 mmHg 81%
    12:00 +6°C° 0.2 mm 8 mps 745 mmHg 75%
    13:00 +7°C° 0.2 mm 9 mps 745 mmHg 68%
    14:00 +5°C° 0 mm 8 mps 746 mmHg 66%
    15:00 +4°C° 0 mm 8 mps 748 mmHg 64%
    16:00 +3°C° 0 mm 7 mps 749 mmHg 62%
    17:00 +2°C° 0 mm 7 mps 750 mmHg 63%
    18:00 +2°C° 0 mm 6 mps 751 mmHg 65%
    19:00 +1°C° 0 mm 5 mps 751 mmHg 67%
    20:00 +1°C° 0 mm 5 mps 752 mmHg 68%
    21:00 +1°C° 0 mm 5 mps 753 mmHg 70%
    22:00 0°C° 0 mm 5 mps 753 mmHg 72%
    23:00 0°C° 0 mm 5 mps 753 mmHg 75%

    16 December, Monday

    Time Temperature Precipitation Wind Pressure Humidity
    00:00 0°C° 0 mm 5 mps 754 mmHg 79%
    01:00 0°C° 0 mm 4 mps 754 mmHg 83%
    02:00 0°C° 0 mm 4 mps 754 mmHg 83%
    03:00 0°C° 0 mm 4 mps 754 mmHg 83%
    04:00 0°C° 0 mm 5 mps 754 mmHg 84%
    05:00 0°C° 0 mm 5 mps 754 mmHg 85%
    06:00 0°C° 0 mm 5 mps 754 mmHg 86%
    07:00 0°C° 0 mm 5 mps 753 mmHg 88%
    08:00 +1°C° 0 mm 5 mps 754 mmHg 87%
    09:00 +1°C° 0 mm 5 mps 754 mmHg 87%
    10:00 +2°C° 0 mm 5 mps 754 mmHg 86%
    11:00 +4°C° 0 mm 4 mps 754 mmHg 84%
    12:00 +5°C° 0 mm 4 mps 754 mmHg 83%
    13:00 +5°C° 0 mm 4 mps 754 mmHg 81%
    14:00 +5°C° 0 mm 3 mps 754 mmHg 84%
    15:00 +4°C° 0 mm 3 mps 754 mmHg 86%
    16:00 +4°C° 0 mm 3 mps 754 mmHg 89%
    17:00 +4°C° 0 mm 3 mps 754 mmHg 90%
    18:00 +4°C° 0 mm 3 mps 754 mmHg 91%
    19:00 +4°C° 0 mm 3 mps 754 mmHg 92%
    20:00 +4°C° 0.3 mm 3 mps 754 mmHg 93%
    21:00 +6°C° 0.3 mm 2 mps 754 mmHg 95%
    22:00 +6°C° 0.3 mm 2 mps 754 mmHg 96%
    23:00 +6°C° 0.7 mm 2 mps 754 mmHg 95%

    17 December, Tuesday

    Time Temperature Precipitation Wind Pressure Humidity
    00:00 +6°C° 0.7 mm 2 mps 753 mmHg 94%
    01:00 +6°C° 0.7 mm 2 mps 753 mmHg 93%
    02:00 +5°C° 0.1 mm 3 mps 753 mmHg 91%
    03:00 +4°C° 0.1 mm 3 mps 753 mmHg 90%
    04:00 +4°C° 0.1 mm 3 mps 753 mmHg 89%
    05:00 +4°C° 0 mm 3 mps 753 mmHg 89%
    06:00 +4°C° 0 mm 3 mps 752 mmHg 89%
    07:00 +3°C° 0 mm 3 mps 752 mmHg 89%
    08:00 +4°C° 0 mm 3 mps 752 mmHg 88%
    09:00 +4°C° 0 mm 4 mps 752 mmHg 86%
    10:00 +4°C° 0 mm 4 mps 752 mmHg 85%
    11:00 +5°C° 0 mm 4 mps 752 mmHg 82%
    12:00 +6°C° 0 mm 4 mps 752 mmHg 78%
    13:00 +7°C° 0 mm 4 mps 752 mmHg 75%
    14:00 +7°C° 0 mm 4 mps 752 mmHg 75%
    15:00 +7°C° 0 mm 4 mps 752 mmHg 76%
    16:00 +7°C° 0 mm 4 mps 752 mmHg 76%
    17:00 +7°C° 0 mm 4 mps 752 mmHg 76%
    18:00 +7°C° 0 mm 5 mps 752 mmHg 76%
    19:00 +7°C° 0 mm 5 mps 752 mmHg 76%
    20:00 +7°C° 0.1 mm 5 mps 752 mmHg 79%
    21:00 +7°C° 0.1 mm 6 mps 753 mmHg 82%
    22:00 +8°C° 0.1 mm 6 mps 753 mmHg 85%
    23:00 +7°C° 0.1 mm 6 mps 754 mmHg 84%
    Show more